Weather in Pilyandysh

Russia / Kirov Oblast     56°59′39″N   50°27′09″E
temp.,
°C
wind,
m/s
gust,
m/s
humid.,
%
clouds,
%
prec.,
mm/h
press.,
hPa
HPBL,
m
2 july, sat
sat200:00+10ne259373 0.0 101781
03:00+9nne2387100 0.0 101754
06:00+13nne2472100 0.0 1017208
09:00+19n245220 0.0 10161062
12:00+22nnw234321 0.0 10152051
15:00+22nnw444599 0.0 10142140
18:00+19n3666100 0.0 1014281
21:00+15ne117099 0.0 101414
3 july, sun
sun300:00+14n1173100 0.0 101411
03:00+13nne2376100 0.0 101480
06:00+15nne3576100 0.0 1013302
09:00+18nne356889 0.0 1013919
12:00+18n4571100 0.2 1013970
15:00+20n5657100 0.3 10131686
18:00+18nne3868100 0.0 10131001
21:00+13n238494 0.0 101343
4 july, mon
mon400:00+14n2273100 0.0 101350
03:00+13nne267984 0.0 1013155
06:00+15nne357276 0.0 1014272
09:00+20nne474993 0.0 10141500
12:00+22nne464565 0.0 10142193
15:00+21ene4654100 0.0 10141141
18:00+18n2269100 0.0 101551
21:00+17nw2470100 0.0 101584
5 july, tue
tue500:00+12nnw237550 0.0 101654
03:00+11n228773 0.0 101725
06:00+15n137090 0.0 1017162
09:00+21nnw124998 0.0 1017697
12:00+24wnw3440100 0.0 10161740
15:00+25wnw34385 0.0 10161919
18:00+23nnw23640 0.0 101690
21:00+16wsw00755 0.0 101611
6 july, wed
wed600:00+15wsw22835 0.0 101612
03:00+14w22830 0.0 101631
06:00+18wsw23710 0.0 1016147
09:00+24wsw34601 0.0 1015568
12:00+27w34520 0.0 10151308
15:00+28w44502 0.0 10141752
18:00+26w12680 0.0 101483
21:00+19wsw37840 0.1 1015118